CAPE
2 6 3 0 1 0 0 0 0 0 0 0 0 0 0 0 0 0 0 0 0 0 0 0 0 0 0 0 0 0 0 0 0 0 0 0 0 0 1 1 2 0 0 0
0 1 0 8 6 4 6 5 1 2 0 0 0 0 0 0 0 0 0 0 0 0 0 0 0 0 0 0 0 0 0 0 0 0 0 0 0 0 0 0 0 0 1 0
0 0 0 0 0 4 2 0 1 0 0 0 0 0 0 0 0 0 0 0 0 0 0 0 0 0 0 0 0 0 0 0 0 0 0 0 0 0 0 0 0 0 0 0
4 0 0 0 0 0 0 0 1 3 1 2 0 0 0 0 0 0 0 0 0 0 0 0 0 0 0 0 0 0 0 0 0 0 0 0 0 0 0 0 0 0 0 0
0 0 7 0 0 0 0 0 0 0 4 1 0 1 0 0 0 0 0 0 0 0 0 0 0 0 0 0 0 0 0 0 0 0 0 0 0 0 0 0 0 0 0 0
0 0 0 0 0 1 0 4 14 14 7 2 0 0 0 0 0 0 0 0 0 0 0 0 0 0 0 0 0 0 0 0 0 0 0 1 0 0 1 2 4 17 31 26
11 19 4 0 15 23 27 29 13 18 1 0 0 0 0 0 0 0 0 0 0 0 0 0 0 0 0 0 0 0 0 0 0 0 0 0 0 0 0 0 1 14 32 63
0 1 17 22 23 18 28 18 12 1 0 0 0 0 0 0 0 0 0 0 0 0 0 0 0 0 0 0 0 0 0 0 0 0 0 0 0 0 0 0 0 0 0 0
0 0 0 1 18 14 5 10 2 0 0 0 0 0 0 0 0 0 0 0 0 0 0 0 0 0 0 0 0 0 0 0 0 0 0 0 0 0 0 0 0 0 0 0
0 0 0 0 23 17 15 2 0 9 1 0 0 0 0 0 0 0 0 0 0 0 0 0 0 0 0 0 0 0 0 0 0 0 0 0 0 0 0 0 0 0 0 0
0 0 0 4 8 1 10 13 15 10 7 0 0 0 0 0 0 0 0 0 0 0 0 0 0 0 0 0 0 0 0 0 0 0 0 0 0 0 0 0 0 0 0 0
0 0 0 0 0 1 16 6 20 16 0 0 0 0 0 0 0 0 0 0 0 0 0 0 0 0 0 0 0 0 0 0 0 0 0 0 0 0 0 0 0 0 0 0
0 4 6 1 5 18 11 4 8 15 1 0 2 0 0 0 0 0 0 0 0 0 0 0 0 0 0 0 0 0 0 0 0 0 0 0 0 0 0 0 0 0 0 0
4 0 0 0 0 0 0 0 1 17 4 0 2 0 0 0 0 0 0 0 0 0 0 0 0 0 0 0 0 0 0 0 0 0 0 0 0 0 0 0 0 0 0 0
10 0 0 0 0 0 0 0 0 23 0 0 0 0 0 0 0 0 0 0 0 0 0 0 0 0 0 0 0 0 0 0 0 0 0 0 0 0 0 0 0 0 0 0
20 7 0 0 0 0 0 0 0 0 0 4 0 0 0 0 0 0 0 0 0 0 0 0 0 0 0 0 0 0 0 0 0 0 0 0 0 0 0 0 0 0 0 0
41 2 0 0 0 0 12 0 0 0 0 0 0 0 0 0 0 0 0 0 0 0 0 0 0 0 0 0 0 0 0 0 0 0 0 0 0 0 0 0 0 0 0 0
15 13 1 1 1 12 0 0 0 0 0 0 0 0 0 0 0 0 0 0 0 0 0 0 0 0 0 0 0 0 0 0 0 0 0 0 0 0 0 0 0 0 0 0
5 20 10 7 0 0 0 0 0 0 0 0 0 0 0 0 0 0 0 0 0 0 0 0 0 0 0 0 0 0 0 0 0 0 0 0 0 0 0 0 0 0 0 0
14 12 12 0 4 0 0 0 0 0 0 0 0 0 0 0 0 0 0 0 0 0 0 0 0 0 0 0 0 0 0 0 0 0 0 0 0 0 0 0 0 0 0 0
1 14 26 8 0 0 0 0 0 0 0 0 0 0 0 0 0 0 0 0 0 0 0 0 0 0 0 0 0 0 0 0 0 0 0 0 0 0 0 0 0 0 0 0
1 3 2 15 1 0 0 0 0 0 0 0 0 0 0 0 0 0 0 0 0 0 0 0 0 0 0 0 0 0 0 0 0 0 0 0 0 0 0 0 0 0 0 0
1 0 0 0 0 0 0 0 0 0 0 0 0 0 0 0 0 0 0 0 0 0 0 0 0 0 0 0 0 0 0 0 0 0 0 0 0 0 0 0 0 0 0 0
0 0 0 0 0 0 0 0 0 0 0 0 0 0 0 0 0 0 0 0 0 0 0 0 0 0 0 0 0 0 0 0 0 0 0 0 0 0 0 0 0 0 0 0
0 0 0 0 0 0 0 0 0 0 0 0 0 0 0 0 0 0 0 0 0 0 0 0 0 0 0 0 0 0 0 0 0 0 0 0 0 0 0 0 0 0 0 0
0 0 0 0 0 0 0 0 0 0 0 0 0 0 0 0 0 0 0 0 0 0 0 0 0 0 0 0 0 0 0 0 0 0 0 0 0 0 0 0 0 0 0 0
CIN
-1 0 0 0 -3 0 0 0 0 0 0 0 0 0 0 0 0 0 0 0 0 0 0 0 0 0 0 0 0 0 0 0 0 0 0 0 0 0 0 0 0 0 0 0
0 0 0 -3 -9 -4 -6 -5 -5 -17 -1 0 0 0 0 0 0 0 0 0 0 0 0 0 0 0 0 0 0 0 0 0 0 0 0 0 0 0 0 0 0 0 0 0
0 0 0 0 -2 -3 -4 -2 -3 -1 0 0 0 0 0 0 0 0 0 0 0 0 0 0 0 0 0 0 0 0 0 0 0 0 0 0 0 0 0 0 0 0 0 0
-1 0 0 0 0 0 0 0 -2 -25 -17 -1 0 0 0 0 0 0 0 0 0 0 0 0 0 0 0 0 0 0 0 0 0 0 0 0 0 0 0 0 0 0 0 0
0 0 -1 0 0 0 0 0 0 0 -13 -11 0 0 0 0 0 0 0 0 0 0 0 0 0 0 0 0 0 0 0 0 0 0 0 0 0 0 0 0 0 0 0 -14
0 0 -9 0 -7 -8 0 -5 -13 -4 -1 0 0 0 0 0 0 0 0 0 0 0 0 0 0 0 0 0 0 0 0 0 0 0 0 -1 -2 -2 -2 -3 -52 -143 -127 -139
-1 -2 -11 0 -1 -18 -5 -1 -1 -2 0 0 0 0 0 0 0 0 0 0 0 0 0 0 0 0 0 0 0 0 0 0 0 0 0 0 0 0 0 0 0 -66 -108 -59
-3 0 -1 -9 -5 -2 -2 -1 -2 -4 0 0 0 0 0 0 0 0 0 0 0 0 0 0 0 0 0 0 0 0 0 0 0 0 0 0 0 0 0 0 0 0 0 0
0 0 0 -1 -5 -3 -2 0 -7 -5 0 0 0 0 0 0 0 0 0 0 0 0 0 0 0 0 0 0 0 0 0 0 0 0 0 0 0 0 0 0 0 0 0 0
0 0 0 0 -5 -14 -5 -13 0 -1 -1 -1 0 0 0 0 0 0 0 0 0 0 0 0 0 0 0 0 0 0 0 0 0 0 0 0 0 0 0 0 0 0 0 0
0 0 -1 -3 0 0 -2 0 -6 -8 -7 -1 0 0 0 0 0 0 0 0 0 0 0 0 0 0 0 0 0 0 0 0 0 0 0 0 0 0 0 0 0 0 0 0
0 0 0 0 -7 -8 -10 -14 -5 -3 -11 0 0 0 0 0 0 0 0 0 0 0 0 0 0 0 0 0 0 0 0 0 0 0 0 0 0 0 0 0 0 0 0 0
0 -6 -2 -4 -11 -20 -2 -4 -2 -2 -15 -2 -3 0 0 0 0 0 0 0 0 0 0 0 0 0 0 0 0 0 0 0 0 0 0 0 0 0 0 0 0 0 0 0
-10 0 0 0 0 0 -1 0 -1 -2 -7 0 -4 0 0 0 0 0 0 0 0 0 0 0 0 0 0 0 0 0 0 0 0 0 0 0 0 0 0 0 0 0 0 0
-9 0 0 0 0 0 0 0 0 -14 0 0 0 0 0 0 0 0 0 0 0 0 0 0 0 0 0 0 0 0 0 0 0 0 0 0 0 0 0 0 0 0 0 0
-4 -4 0 0 0 0 0 0 0 0 0 -39 0 0 0 0 0 0 0 0 0 0 0 0 0 0 0 0 0 0 0 0 0 0 0 0 0 0 0 0 0 0 0 0
-2 -2 -1 0 0 0 -7 0 0 0 0 0 0 0 0 0 0 0 0 0 0 0 0 0 0 0 0 0 0 0 0 0 0 0 0 0 0 0 0 0 0 0 0 0
-29 -17 -4 -7 0 -3 0 0 0 0 0 0 0 0 0 0 0 0 0 0 0 0 0 0 0 0 0 0 0 0 0 0 0 0 0 0 0 0 0 0 0 0 0 0
-20 -37 -19 -5 0 0 0 0 0 0 0 0 0 0 0 0 0 0 0 0 0 0 0 0 0 0 0 0 0 0 0 0 0 0 0 0 0 0 0 0 0 0 0 0
-25 -22 -5 0 -5 -1 0 0 0 0 0 0 0 0 0 0 0 0 0 0 0 0 0 0 0 0 0 0 0 0 0 0 0 0 0 0 0 0 0 0 0 0 0 0
0 -12 -6 -5 0 0 0 0 0 0 0 0 0 0 0 0 0 0 0 0 0 0 0 0 0 0 0 0 0 0 0 0 0 0 0 0 0 0 0 0 0 0 0 0
-55 -16 -7 -2 -9 0 0 0 0 0 0 0 0 0 0 0 0 0 0 0 0 0 0 0 0 0 0 0 0 0 0 0 0 0 0 0 0 0 0 0 0 0 0 0
-12 -5 -1 0 0 0 0 0 0 0 0 0 0 0 0 0 0 0 0 0 0 0 0 0 0 0 0 0 0 0 0 0 0 0 0 0 0 0 0 0 0 0 0 0
0 0 0 0 0 0 0 0 0 0 0 0 0 0 0 0 0 0 0 0 0 0 0 0 0 0 0 0 0 0 0 0 0 0 0 0 0 0 0 0 0 0 0 0
0 0 0 0 0 0 0 0 0 0 0 0 0 0 0 0 0 0 0 0 0 0 0 0 0 0 0 0 0 0 0 0 0 0 0 0 0 0 0 0 0 0 0 0
0 0 0 0 0 0 0 0 0 0 0 0 0 0 0 0 0 0 0 0 0 0 0 0 0 0 0 0 0 0 0 0 0 0 0 0 0 0 0 0 0 0 0 0
Wind_Speed
26 30 35 31 31 31 33 34 38 35 30 36 41 47 44 43 42 43 43 43 42 39 38 38 38 35 32 30 27 25 24 21 20 21 20 21 20 20 20 21 20 19 20 20
33 42 30 28 29 31 34 38 38 34 32 36 44 57 46 40 43 42 42 41 41 44 41 41 42 40 35 34 30 27 24 24 22 21 22 23 23 23 22 22 21 21 21 21
39 35 33 33 32 35 37 40 38 40 34 37 45 66 50 42 38 36 34 34 37 39 46 45 44 41 38 34 32 28 25 24 23 20 22 24 25 27 26 25 26 24 22 22
36 34 26 32 38 33 40 31 33 36 39 49 33 70 53 46 44 37 34 35 38 40 40 41 42 40 37 35 33 29 28 27 25 24 24 24 26 28 28 27 27 26 24 24
35 32 36 36 34 31 40 31 34 37 42 45 44 48 48 30 40 41 40 36 35 34 34 35 32 30 30 30 28 26 25 25 25 25 25 28 30 32 30 29 29 29 29 28
37 28 30 36 30 28 25 29 30 32 35 51 43 40 66 45 39 34 33 31 31 29 27 26 26 26 26 25 24 23 22 22 21 21 22 25 28 30 32 32 33 32 33 33
36 37 30 28 32 28 27 29 40 42 43 52 35 38 51 35 44 44 40 35 26 24 23 23 23 24 24 24 23 22 21 21 20 20 21 22 23 24 25 28 29 31 32 32
41 45 37 28 32 33 32 33 39 47 48 45 35 48 46 34 36 38 34 23 21 21 21 20 19 20 21 22 22 21 21 20 21 21 21 22 22 22 23 24 25 26 28 30
39 44 27 30 31 27 32 38 32 42 42 50 45 49 53 42 38 35 24 19 19 18 18 18 17 18 18 20 21 21 20 20 21 22 22 23 23 24 24 25 26 27 28 30
32 38 32 29 26 30 33 26 35 35 49 53 46 46 43 37 37 33 26 23 19 17 14 14 15 16 17 18 19 20 21 21 22 22 23 24 25 25 25 26 27 29 30 32
31 33 31 26 34 33 31 34 32 33 36 44 46 42 28 31 29 24 21 16 14 11 11 11 13 14 15 17 20 21 22 22 23 24 24 25 25 26 27 28 30 31 32 34
31 32 40 37 28 29 32 35 32 40 40 37 43 51 26 25 19 16 16 11 9 9 11 12 13 14 17 18 20 21 23 24 25 25 25 27 28 28 30 31 32 34 36 36
31 37 41 40 37 32 34 34 33 35 36 43 45 42 22 22 23 21 15 10 10 12 12 13 14 16 17 18 21 23 24 26 27 26 26 28 29 31 33 34 35 35 37 38
23 36 43 50 41 31 38 36 34 33 39 42 43 44 34 29 25 20 14 13 15 16 14 13 15 17 19 20 23 24 25 27 28 28 31 31 31 33 34 36 36 37 38 39
26 39 38 40 36 31 33 34 32 36 38 40 40 38 35 28 26 20 18 18 17 16 15 17 15 18 20 22 24 25 27 28 29 28 30 33 33 34 35 36 38 38 39 40
27 34 32 40 35 33 37 33 30 31 33 35 35 41 31 26 20 19 22 23 22 16 14 13 15 19 23 24 24 26 27 28 29 30 30 32 34 35 36 38 39 40 40 41
27 30 32 43 34 35 44 40 36 34 34 33 36 30 28 24 22 22 23 20 18 15 15 16 18 18 19 21 24 27 28 28 29 31 32 33 35 36 38 39 40 42 43 44
31 32 31 38 28 45 35 35 32 33 35 31 31 33 27 25 21 22 20 19 17 15 16 16 16 17 21 23 25 26 26 27 28 32 32 34 35 37 39 40 41 44 45 46
32 29 31 34 33 33 34 29 23 23 36 23 24 25 23 19 19 23 20 16 15 13 15 15 17 18 22 25 25 25 25 26 28 30 32 34 36 37 39 41 43 44 45 46
36 35 36 32 38 41 29 25 20 21 42 20 17 18 18 15 23 23 14 13 13 14 15 15 17 19 21 23 24 23 25 27 29 31 34 35 36 38 40 42 43 44 45 46
42 40 43 41 39 39 33 21 15 27 31 19 15 16 15 18 21 15 10 12 12 13 14 15 17 18 20 22 23 24 25 27 30 31 33 35 36 38 39 41 42 45 46 48
28 34 40 39 39 47 22 19 26 28 26 22 19 17 13 14 12 8 8 10 11 12 14 15 15 17 19 21 22 23 25 28 30 32 33 35 37 37 39 42 43 44 45 47
40 33 33 30 37 30 23 30 28 26 29 24 18 13 10 11 11 9 9 9 10 11 12 14 15 17 19 21 22 23 27 29 31 33 34 35 37 38 40 42 43 44 45 48
36 32 36 34 37 35 32 32 25 25 26 17 14 11 10 12 9 9 9 9 10 11 13 14 15 17 19 21 22 24 27 29 31 33 34 35 37 39 39 40 41 43 45 47
33 31 33 37 36 33 35 32 26 25 21 18 16 13 11 9 9 9 9 10 10 11 13 14 15 17 19 21 23 26 28 30 32 33 34 36 36 38 39 40 42 43 43 47
33 33 29 33 33 33 33 22 20 21 21 17 12 13 12 10 10 9 10 10 11 12 13 14 16 18 20 22 24 27 28 30 31 33 34 36 37 39 40 41 42 41 43 44
Wind_Direction
258 258 254 257 261 270 275 276 278 282 287 288 286 284 287 289 290 292 295 298 302 306 308 310 310 312 310 309 305 291 288 289 290 287 286 286 284 287 291 294 294 293 293 291
256 256 260 268 263 265 269 273 277 285 289 289 288 281 288 290 291 294 297 301 304 304 306 307 307 307 308 307 307 303 287 286 284 284 285 288 293 290 290 293 293 293 294 294
252 268 256 260 266 265 268 270 276 280 289 290 291 280 286 291 292 297 301 305 306 305 304 305 306 306 307 307 308 304 299 292 287 282 286 288 291 294 294 294 295 295 295 297
259 256 263 259 260 264 269 274 278 281 285 282 292 280 285 291 293 298 306 309 308 308 311 310 306 306 308 308 307 307 302 297 292 287 285 285 288 289 294 295 296 295 294 295
259 260 256 263 268 263 271 276 277 280 281 285 283 285 289 302 297 302 306 310 312 314 317 320 323 321 319 319 318 316 314 310 299 292 288 290 289 291 296 298 298 297 297 297
261 271 263 262 268 264 273 277 281 282 282 277 281 280 281 295 300 307 316 317 316 318 324 329 334 337 336 335 333 332 329 327 323 315 308 301 298 297 297 297 298 300 299 298
260 261 267 268 263 264 262 269 275 276 274 278 285 279 281 297 302 304 306 309 314 320 326 332 336 341 345 347 345 342 339 338 335 334 330 323 317 314 312 309 307 307 306 306
254 259 256 261 262 264 259 262 269 273 275 281 287 280 287 302 308 311 314 314 315 319 324 330 338 344 350 353 351 349 343 340 337 338 338 337 334 330 329 330 327 324 321 318
256 260 275 263 261 260 266 264 270 277 281 281 282 285 290 299 304 313 313 313 316 322 328 331 339 343 345 345 346 345 344 343 342 341 341 340 339 339 337 336 333 331 331 328
263 266 267 264 265 263 264 268 270 271 276 277 283 285 287 300 306 313 309 306 310 319 332 341 340 334 337 340 342 343 342 343 342 343 341 342 340 339 338 337 337 334 331 329
256 264 269 263 259 258 261 265 271 276 274 278 282 283 293 300 308 314 317 320 316 322 333 338 341 344 343 340 340 339 340 338 338 339 340 340 335 334 336 336 335 333 333 332
248 263 262 263 273 265 263 264 262 268 272 278 284 284 296 298 306 311 307 314 316 320 323 324 325 331 330 334 340 337 335 336 336 337 337 336 335 333 333 333 332 330 328 329
242 256 260 265 267 268 264 263 265 270 277 274 277 282 291 295 300 301 293 291 292 294 297 309 324 325 325 327 335 334 335 335 336 335 337 337 334 331 331 330 330 331 328 327
240 256 253 258 268 267 264 265 263 263 271 273 274 281 285 287 287 291 282 277 281 282 296 309 320 324 322 326 328 328 329 331 333 332 329 330 330 329 329 328 328 328 328 327
249 258 259 262 267 269 271 267 264 260 265 270 278 279 283 281 282 272 269 273 279 286 295 298 312 320 321 321 330 328 326 325 328 332 331 329 329 330 329 331 330 330 329 328
255 264 261 263 264 267 270 272 265 263 265 271 276 283 287 288 278 267 268 269 274 280 292 306 316 317 314 317 323 324 323 327 328 327 331 330 330 331 328 328 327 329 329 329
252 259 263 264 265 266 266 264 267 270 268 271 273 271 287 280 267 263 265 266 271 277 287 297 308 315 317 322 325 319 318 324 323 325 329 330 330 330 327 331 331 329 329 330
249 254 264 269 266 262 271 273 267 265 271 266 272 284 278 277 274 275 270 265 271 277 284 298 305 311 311 318 320 325 328 330 332 324 336 336 338 333 331 333 333 332 331 331
244 246 260 265 265 274 278 274 273 269 277 258 259 275 282 284 283 278 273 270 274 279 296 302 306 309 312 310 320 324 328 332 334 335 335 335 334 335 334 335 335 334 334 333
247 247 252 267 266 266 263 271 276 284 280 271 257 265 267 272 271 278 259 266 274 286 298 301 308 313 314 317 321 324 327 331 332 332 332 334 334 334 334 333 333 333 333 332
241 245 249 256 265 271 274 280 268 268 285 290 281 274 255 258 278 284 251 264 279 288 295 303 309 312 316 320 322 324 326 328 330 332 333 333 334 334 335 335 336 334 333 333
244 246 248 250 260 265 272 265 257 276 287 293 301 290 270 277 283 272 261 266 276 286 297 305 308 313 319 321 323 324 325 327 328 329 331 333 335 337 337 336 336 337 336 335
255 251 251 255 262 274 266 274 275 285 281 290 294 287 269 269 276 268 267 273 282 291 299 307 309 313 319 322 324 323 325 326 327 328 330 333 335 336 336 336 337 337 338 336
258 263 262 268 268 270 267 273 281 282 284 290 289 281 272 271 262 267 273 280 288 295 301 307 310 313 317 321 323 324 325 327 327 329 331 333 334 335 337 338 338 337 337 336
272 270 265 266 271 278 271 266 273 278 279 281 285 283 273 262 265 269 277 284 292 300 305 309 311 313 317 321 322 325 326 328 328 329 331 333 334 335 336 338 337 337 337 336
264 270 266 267 273 274 275 265 267 270 273 272 271 278 281 272 270 277 284 289 293 298 304 309 313 316 318 320 323 325 328 329 330 330 331 333 333 334 334 334 335 339 338 338